Location: ??????????
(44.2167°N, 135.5333°E)
Time: 14:12:37
(UTC+00:00)

IDEFIX/ARIANE 42P - Pass Details

Date: 15 June 2025
Orbit: 780 x 798 km, 98.6° (Epoch: 15 July)

Event Time Altitude Azimuth Distance (km) Brightness Sun altitude
Rises 17:58:25 0° 1° (N) 3,311 6.6 -10.9°
Reaches altitude 10° 18:01:14 10° 346° (NNW) 2,374 5.5 -10.6°
Maximum altitude 18:05:07 22° 298° (WNW) 1,696 4.2 -10.1°
Drops below altitude 10° 18:08:59 10° 250° (WSW) 2,355 4.5 -9.6°
Enters shadow 18:09:11 - 249° (WSW) 2,412 4.5 -9.6°
